Location: *
(60.1759°S, 155.0663°W)
Time: 05:29:40
(UTC+00:00)

Nadezhda 4 Rocket - Pass Details

Date: 17 September 2019
Orbit: 950 x 992 km, 83.0° (Epoch: 16 October)

Event Time Altitude Azimuth Distance (km) Brightness Sun altitude
Rises 13:13:58 0° 194° (SSW) 3,753 7.4 -22.7°
Reaches altitude 10° 13:16:37 10° 199° (SSW) 2,797 6.6 -22.5°
Maximum altitude 13:22:39 45° 269° (W) 1,349 4.4 -21.9°
Enters shadow 13:23:47 41° 296° (WNW) 1,423 4.4 -21.8°
